Redmond, OR

9:29 AM PST on February 25, 2017 (GMT -0800)
Roberts Field Airport

Weather History for KRDM - September, 2014

Change the Weather History Date:

Thursday, September 18, 2014

  Actual Average Record
Temperature  
Mean Temperature 62 °F 56 °F  
Max Temperature 75 °F 76 °F 92 °F (1984)
Min Temperature 48 °F 38 °F 22 °F (1965)
Degree Days  
Heating Degree Days 3 9  
Month to date heating degree days 113 122  
Since 1 July heating degree days 187 271  
Cooling Degree Days 0 0  
Month to date cooling degree days 6 14  
Year to date cooling degree days 303 220  
Growing Degree Days 14 (Base 50)    
Moisture  
Dew Point 47 °F    
Average Humidity 61    
Maximum Humidity 83    
Minimum Humidity 39    
Precipitation  
Precipitation 0.03 in 0.01 in 0.40 in (1980)
Month to date precipitation 0.03 0.24  
Year to date precipitation 5.03 5.97  
Sea Level Pressure  
Sea Level Pressure 29.82 in    
Wind  
Wind Speed 7 mph (WSW)    
Max Wind Speed 22 mph    
Max Gust Speed 27 mph    
Visibility 10 miles    
Events Rain    
T = Trace of Precipitation, MM = Missing Value Source: NWS Daily Summary

Daily Weather History Graph

Daily Weather History Graph

Search for Another Location

Airport or City:

Trip Planner

Search our weather history database for the weather conditions in past years. The results will help you decide how hot, cold, wet, or windy it might be!

Date:

Astronomy

Sep. 18, 2014 Rise Set
Actual Time 6:47 AM PDT 7:09 PM PDT
Civil Twilight 6:18 AM PDT 7:38 PM PDT
Nautical Twilight 5:43 AM PDT 8:12 PM PDT
Astronomical Twilight 5:08 AM PDT 8:47 PM PDT
Moon 1:35 AM PDT (9/18) 4:11 PM PDT (9/18)
Length of Visible Light 13h 20m
Length of Day
12h 22m
Waning Crescent, 25% of the Moon is Illuminated
Sep 18
Waning Crescent
Sep 23
New
Oct 1
First Quarter
Oct 8
Full
Oct 15
Last Quarter

Hourly Weather History & Observations

Time (PDT) Temp. Dew Point Humidity Pressure Visibility Wind Dir Wind Speed Gust Speed Precip Events Conditions
1:56 AM 61.0 °F 37.0 °F 41% 29.70 in 9.0 mi East 4.6 mph - N/A   Mostly Cloudy
2:56 AM 61.0 °F 37.9 °F 42% 29.69 in 10.0 mi NNW 3.5 mph - N/A   Clear
3:56 AM 59.0 °F 37.9 °F 46% 29.70 in 10.0 mi SE 3.5 mph - N/A   Clear
4:56 AM 61.0 °F 37.9 °F 42% 29.70 in 9.0 mi SSE 8.1 mph - N/A   Mostly Cloudy
5:56 AM 57.9 °F 46.9 °F 67% 29.72 in 7.0 mi SSE 6.9 mph - 0.00 in Rain Light Rain
6:56 AM 57.9 °F 48.0 °F 70% 29.74 in 10.0 mi SE 8.1 mph - 0.00 in   Overcast
7:56 AM 60.1 °F 48.9 °F 67% 29.75 in 10.0 mi SSE 9.2 mph - 0.00 in Rain Light Rain
8:56 AM 62.1 °F 50.0 °F 65% 29.78 in 10.0 mi SSW 10.4 mph - 0.00 in Rain Light Rain
9:56 AM 61.0 °F 53.1 °F 75% 29.82 in 10.0 mi SW 5.8 mph - 0.01 in Rain Light Rain
10:56 AM 63.0 °F 53.1 °F 70% 29.82 in 10.0 mi South 10.4 mph 18.4 mph 0.02 in Rain Light Rain
11:56 AM 64.9 °F 52.0 °F 63% 29.83 in 10.0 mi South 8.1 mph - 0.00 in   Overcast
12:56 PM 70.0 °F 51.1 °F 51% 29.83 in 10.0 mi WNW 5.8 mph - N/A   Mostly Cloudy
1:56 PM 71.1 °F 48.9 °F 45% 29.83 in 10.0 mi North 5.8 mph - N/A   Mostly Cloudy
2:56 PM 71.1 °F 46.9 °F 42% 29.82 in 10.0 mi NNW 10.4 mph - N/A   Mostly Cloudy
3:56 PM 72.0 °F 46.9 °F 41% 29.83 in 10.0 mi WNW 11.5 mph 20.7 mph N/A   Mostly Cloudy
4:56 PM 72.0 °F 48.9 °F 44% 29.83 in 10.0 mi WNW 17.3 mph - N/A   Clear
5:56 PM 68.0 °F 50.0 °F 52% 29.86 in 10.0 mi WNW 13.8 mph - N/A   Partly Cloudy
6:56 PM 66.0 °F 50.0 °F 56% 29.88 in 10.0 mi WNW 12.7 mph 20.7 mph N/A   Mostly Cloudy
7:56 PM 62.1 °F 51.1 °F 67% 29.91 in 10.0 mi NW 10.4 mph - N/A   Mostly Cloudy
8:56 PM 61.0 °F 50.0 °F 67% 29.95 in 10.0 mi Calm Calm - N/A   Partly Cloudy
9:56 PM 60.1 °F 50.0 °F 69% 29.97 in 10.0 mi NW 4.6 mph - N/A   Mostly Cloudy
10:56 PM 57.0 °F 48.9 °F 74% 29.98 in 10.0 mi NE 3.5 mph - N/A   Clear
11:56 PM 51.1 °F 46.9 °F 86% 30.00 in 10.0 mi Calm Calm - N/A   Clear